[[{"header":{"parameterUnit":"m.s-1","parameterCategory":1,"la1":30.2991,"la2":30.254,"lo1":-89.0895,"lo2":-89.0444,"dy":0.0017,"dx":0.0017,"nx":28,"ny":28,"refTime":"2024-04-18T09:00:00:Z","depth":0,"parameterNumber":2,"parameterNumberName":"U-component_of_WINDS"},"data":[0,0,0,0,0,0,0,0,0,0,0,0,0,0,0,0,0,0,0,0,0,0,0,0,0,0,0,0,0,0,0,0,0,0,0,0,0,0,0,0,0,0,0,0,0,0,0,0,0,0,0,0,0,0,0,0,0,0,-0.9208,-0.9208,0,-0.924,-0.924,-0.924,-0.9253,-0.9253,-0.9253,-0.9253,-0.9286,-0.9287,-0.9288,0,0,0,0,0,0,0,0,0,0,0,0,0,-0.9159,-0.9159,-0.9208,-0.9208,-0.9208,-0.9239,-0.924,-0.924,-0.9253,-0.9253,-0.9253,-0.9253,-0.9286,-0.9287,-0.9288,0,0,0,0,0,0,0,0,0,0,0,0,0,-0.9184,-0.916,-0.9207,-0.9219,-0.922,-0.9239,-0.924,-0.924,-0.9253,-0.9253,-0.9253,-0.9253,-0.9285,-0.9287,-0.9288,-0.9299,0,0,-0.9292,-0.9293,0,0,0,0,0,0,0,0,-0.9183,-0.9186,-0.9217,-0.9218,-0.9219,-0.9242,-0.9235,-0.926,-0.9253,-0.9241,-0.9253,-0.9253,-0.9272,-0.9274,-0.928,-0.9301,-0.9302,-0.9293,-0.9293,-0.9294,-0.9294,0,0,0,0,0,0,0,-0.9181,-0.9185,-0.922,-0.9217,-0.9219,-0.9222,-0.9226,-0.924,-0.9256,-0.9242,-0.9243,-0.9246,-0.9272,-0.9279,-0.9281,-0.9303,-0.9293,-0.9294,-0.9295,-0.9295,-0.9334,-0.9334,0,0,0,0,0,0,-0.9177,-0.9183,-0.9219,-0.9221,-0.92,-0.9223,-0.9227,-0.9235,-0.9256,-0.9259,-0.9246,-0.9247,-0.9277,-0.928,-0.9282,-0.9297,-0.9294,-0.9295,-0.9296,-0.9334,-0.9334,-0.9334,0,0,0,0,0,0,-0.9176,-0.918,-0.9218,-0.9202,-0.9207,-0.9224,-0.9233,-0.9236,-0.9242,-0.926,-0.9263,-0.925,-0.9277,-0.928,-0.9295,-0.9298,-0.9296,-0.9297,-0.9334,-0.9334,-0.9334,-0.9326,0,0,0,0,0,0,-0.9175,-0.918,-0.9184,-0.9202,-0.9208,-0.923,-0.9233,-0.9236,-0.9245,-0.9246,-0.9264,-0.9267,-0.9277,-0.9293,-0.9296,-0.93,-0.9298,-0.9334,-0.9334,-0.9334,-0.9326,-0.9326,-0.9326,0,0,0,0,0,-0.9173,-0.918,-0.9184,-0.9188,-0.9214,-0.923,-0.9233,-0.9244,-0.9245,-0.9249,-0.9261,-0.9266,-0.9297,-0.9294,-0.9298,-0.9303,-0.9333,-0.9334,-0.9334,-0.9326,-0.9326,-0.9326,0,0,0,0,0,0,-0.9162,-0.9183,-0.9187,-0.9201,-0.9213,-0.9232,-0.9238,-0.9244,-0.9256,-0.9257,-0.927,-0.9274,-0.9288,-0.9297,-0.9293,-0.9315,-0.9316,-0.9317,-0.9308,-0.9308,-0.9308,-0.9306,-0.93,0,0,0,0,0,-0.9161,-0.9172,-0.919,-0.92,-0.9206,-0.9221,-0.9228,-0.9236,-0.9249,-0.9255,-0.9267,-0.928,-0.9293,-0.9301,-0.9314,-0.9328,-0.9332,-0.9333,-0.9333,-0.9332,-0.9333,-0.9342,-0.9342,-0.9336,-0.9336,-0.9336,0,0,-0.9159,-0.9172,-0.9178,-0.9198,-0.9209,-0.922,-0.9225,-0.9237,-0.9246,-0.9257,-0.9271,-0.9281,-0.9296,-0.9311,-0.9318,-0.9319,-0.9336,-0.9333,-0.9333,-0.9334,-0.9342,-0.9343,-0.9343,-0.9336,-0.9336,-0.9336,0,0,-0.9161,-0.9172,-0.9182,-0.9193,-0.9209,-0.9219,-0.9221,-0.9239,-0.9246,-0.9261,-0.9269,-0.928,-0.9302,-0.9313,-0.9321,-0.9329,-0.9334,-0.9332,-0.9332,-0.934,-0.934,-0.9341,-0.9344,-0.9344,-0.9333,-0.9333,-0.9333,0,-0.9157,-0.9175,-0.9186,-0.9198,-0.9207,-0.9217,-0.9228,-0.9237,-0.9257,-0.9263,-0.9264,-0.9292,-0.9303,-0.932,-0.9322,-0.9328,-0.9332,-0.933,-0.9339,-0.934,-0.934,-0.9343,-0.9344,-0.9333,-0.9333,-0.9333,-0.9333,0,-0.9169,-0.9181,-0.9187,-0.9205,-0.9215,-0.9225,-0.9239,-0.9248,-0.9255,-0.9265,-0.928,-0.9294,-0.931,-0.9315,-0.9322,-0.9333,-0.9333,-0.9336,-0.9338,-0.934,-0.9343,-0.9345,-0.9332,-0.9333,-0.9333,-0.9333,0,0,-0.9165,-0.919,-0.9192,-0.9201,-0.9219,-0.9229,-0.9241,-0.9256,-0.9263,-0.9277,-0.9287,-0.9305,-0.9309,-0.9318,-0.9327,-0.9334,-0.9339,-0.9336,-0.9337,-0.9336,-0.9353,-0.935,-0.9351,-0.9343,-0.9344,-0.9344,-0.9352,0,-0.917,-0.919,-0.9202,-0.9218,-0.9229,-0.924,-0.925,-0.9263,-0.9273,-0.9284,-0.9295,-0.9308,-0.9312,-0.9317,-0.9325,-0.9337,-0.9342,-0.9336,-0.9353,-0.9354,-0.9348,-0.9353,-0.9349,-0.9356,-0.9353,-0.9353,-0.9353,0,-0.9178,-0.9191,-0.9208,-0.9226,-0.9231,-0.924,-0.9256,-0.9266,-0.9282,-0.9288,-0.9299,-0.9308,-0.9321,-0.9322,-0.934,-0.9336,-0.9344,-0.9351,-0.9351,-0.9353,-0.9353,-0.9354,-0.9358,-0.9359,-0.9355,-0.9355,-0.9355,0,-0.9173,-0.9195,-0.9208,-0.9216,-0.9237,-0.9243,-0.9252,-0.9267,-0.9276,-0.929,-0.9296,-0.9311,-0.9319,-0.9331,-0.9343,-0.9343,-0.9361,-0.9363,-0.9367,-0.9367,-0.937,-0.9369,-0.9375,-0.9375,-0.9375,-0.9375,-0.9375,0,-0.9178,-0.9188,-0.9207,-0.9215,-0.9227,-0.924,-0.9251,-0.9262,-0.9275,-0.9285,-0.9296,-0.9306,-0.9322,-0.9334,-0.9344,-0.9358,-0.9362,-0.9368,-0.937,-0.9366,-0.9366,-0.9371,-0.9371,-0.9375,-0.9375,-0.9375,-0.9375,0,-0.9174,-0.9187,-0.9202,-0.9221,-0.9226,-0.9234,-0.9251,-0.9259,-0.927,-0.9283,-0.9287,-0.9304,-0.9318,-0.9332,-0.9352,-0.9359,-0.9373,-0.9376,-0.9367,-0.9369,-0.9372,-0.9372,-0.9382,-0.9384,-0.9383,-0.9383,-0.9383,0,-0.9176,-0.9184,-0.9204,-0.9211,-0.922,-0.9233,-0.9242,-0.9255,-0.9265,-0.9283,-0.9289,-0.9305,-0.9318,-0.9341,-0.9355,-0.937,-0.9374,-0.9377,-0.9376,-0.9373,-0.9374,-0.9373,-0.9374,-0.9376,-0.9376,-0.9376,-0.9376,0,-0.9178,-0.9184,-0.9196,-0.9211,-0.9222,-0.9234,-0.9247,-0.9253,-0.9269,-0.9279,-0.9294,-0.9304,-0.9324,-0.934,-0.9357,-0.9367,-0.9374,-0.9376,-0.9378,-0.9374,-0.9369,-0.9372,-0.9367,-0.9376,-0.9376,-0.9376,-0.9376,-0.9376,-0.9177,-0.9185,-0.92,-0.9213,-0.9225,-0.9236,-0.9245,-0.9257,-0.927,-0.9287,-0.9295,-0.931,-0.9326,-0.9349,-0.9359,-0.9372,-0.9374,-0.9376,-0.9377,-0.9377,-0.9376,-0.9367,-0.9375,-0.9375,-0.9375,-0.9375,-0.9375,0,-0.9179,-0.919,-0.9202,-0.922,-0.923,-0.9236,-0.9251,-0.926,-0.9273,-0.9287,-0.93,-0.9317,-0.9332,-0.9348,-0.9364,-0.9371,-0.9375,-0.9375,-0.9375,-0.9377,-0.9374,-0.9371,-0.9372,-0.9372,-0.9372,-0.9372,-0.9372,-0.9372,-0.9182,-0.9195,-0.9203,-0.9222,-0.9233,-0.9247,-0.9255,-0.9267,-0.9278,-0.9297,-0.9309,-0.9319,-0.9334,-0.9352,-0.9366,-0.937,-0.9376,-0.9375,-0.938,-0.9377,-0.9377,-0.9377,-0.9374,-0.9376,-0.9376,-0.9382,-0.9382,-0.9382]},{"header":{"parameterUnit":"m.s-1","parameterCategory":1,"la1":30.2991,"la2":30.254,"lo1":-89.0895,"lo2":-89.0444,"dy":0.0017,"dx":0.0017,"nx":28,"ny":28,"refTime":"2024-04-18T09:00:00:Z","depth":0,"parameterNumber":3,"parameterNumberName":"V-component_of_WINDS"},"data":[0,0,0,0,0,0,0,0,0,0,0,0,0,0,0,0,0,0,0,0,0,0,0,0,0,0,0,0,0,0,0,0,0,0,0,0,0,0,0,0,0,0,0,0,0,0,0,0,0,0,0,0,0,0,0,0,0,0,2.8115,2.8115,0,2.8177,2.8178,2.8178,2.8222,2.8223,2.8223,2.8223,2.8287,2.8288,2.8289,0,0,0,0,0,0,0,0,0,0,0,0,0,2.8034,2.8035,2.8114,2.8115,2.8116,2.8177,2.8178,2.8179,2.8222,2.8223,2.8223,2.8224,2.8286,2.8288,2.8289,0,0,0,0,0,0,0,0,0,0,0,0,0,2.808,2.8035,2.8114,2.8145,2.8149,2.8177,2.8178,2.8179,2.8222,2.8223,2.8223,2.8224,2.8286,2.8288,2.829,2.8292,0,0,2.8296,2.8297,0,0,0,0,0,0,0,0,2.8077,2.8083,2.814,2.8143,2.8147,2.8192,2.8172,2.8217,2.8222,2.8194,2.8223,2.8224,2.8255,2.8259,2.827,2.8295,2.8297,2.8296,2.8297,2.8298,2.8299,0,0,0,0,0,0,0,2.8074,2.808,2.8139,2.8141,2.8145,2.8156,2.8163,2.8181,2.8221,2.8197,2.82,2.8207,2.8257,2.8268,2.8272,2.8298,2.8296,2.8298,2.8299,2.83,2.833,2.833,0,0,0,0,0,0,2.8066,2.8077,2.8137,2.8141,2.8113,2.8157,2.8165,2.8177,2.8221,2.8228,2.8206,2.8209,2.8264,2.8269,2.8274,2.8281,2.8298,2.83,2.8301,2.833,2.833,2.8329,0,0,0,0,0,0,2.8064,2.8071,2.8135,2.811,2.8119,2.8158,2.8171,2.8178,2.8189,2.8228,2.8235,2.821,2.8265,2.8271,2.8288,2.8284,2.8301,2.8303,2.8331,2.833,2.833,2.8294,0,0,0,0,0,0,2.8061,2.807,2.8071,2.811,2.812,2.8147,2.8171,2.8179,2.8193,2.8197,2.8234,2.824,2.8266,2.8284,2.829,2.8287,2.8304,2.8331,2.8331,2.833,2.8296,2.8292,2.8289,0,0,0,0,0,2.8058,2.8058,2.8071,2.8078,2.8122,2.8147,2.8153,2.8182,2.8192,2.8194,2.8219,2.8239,2.8283,2.8286,2.8292,2.829,2.8332,2.8331,2.833,2.8297,2.8293,2.8289,0,0,0,0,0,0,2.8017,2.8063,2.8078,2.809,2.8114,2.8154,2.8157,2.8176,2.8197,2.82,2.8235,2.8243,2.8256,2.8274,2.8276,2.8295,2.831,2.831,2.8283,2.8279,2.8276,2.8272,2.8306,0,0,0,0,0,2.8009,2.8025,2.8064,2.8071,2.8083,2.8117,2.8129,2.815,2.8176,2.8186,2.8212,2.8237,2.8257,2.8269,2.8289,2.8298,2.8308,2.83,2.8297,2.8294,2.8294,2.8302,2.83,2.8326,2.8326,2.8326,0,0,2.7993,2.802,2.8028,2.8064,2.8085,2.8101,2.8126,2.8141,2.8154,2.8188,2.8206,2.8226,2.8256,2.8269,2.8276,2.8285,2.8289,2.8293,2.829,2.8292,2.8301,2.8298,2.8296,2.8326,2.8326,2.8326,0,0,2.7973,2.7994,2.8003,2.8024,2.8056,2.8079,2.8081,2.8119,2.8134,2.8152,2.8179,2.8194,2.8226,2.8247,2.8262,2.825,2.827,2.8256,2.8239,2.8247,2.8245,2.8243,2.824,2.8239,2.8255,2.8255,2.8255,0,2.7949,2.7974,2.8005,2.802,2.8035,2.8068,2.8078,2.8096,2.8133,2.8143,2.8152,2.8194,2.8216,2.8236,2.8233,2.8243,2.8248,2.8252,2.8242,2.8241,2.824,2.8238,2.8237,2.8253,2.8254,2.8254,2.8254,0,2.7944,2.7962,2.7965,2.8,2.8016,2.8028,2.8061,2.8073,2.8092,2.8115,2.8134,2.8161,2.8189,2.8194,2.8213,2.8217,2.8222,2.8236,2.8252,2.8235,2.8234,2.8233,2.8251,2.8251,2.8252,2.8252,0,0,2.79,2.7953,2.7954,2.7971,2.8009,2.8023,2.8037,2.8064,2.8074,2.8098,2.8111,2.8138,2.8152,2.8169,2.819,2.8196,2.8188,2.821,2.8212,2.8206,2.8196,2.8186,2.8184,2.82,2.82,2.82,2.8194,0,2.7887,2.7914,2.7943,2.796,2.7977,2.8008,2.802,2.8045,2.8067,2.8084,2.8108,2.8127,2.8143,2.8154,2.8161,2.8187,2.8186,2.8188,2.8214,2.8215,2.8207,2.8183,2.8173,2.8165,2.8193,2.8193,2.8193,0,2.7875,2.7899,2.7918,2.7956,2.7964,2.7974,2.8002,2.8018,2.8047,2.8062,2.8081,2.8104,2.8121,2.8134,2.8158,2.8158,2.817,2.8185,2.8185,2.819,2.8204,2.8189,2.8163,2.8162,2.8192,2.8192,2.8192,0,2.7843,2.788,2.7896,2.791,2.7953,2.796,2.7979,2.8008,2.8023,2.8047,2.8057,2.8082,2.8096,2.8115,2.8145,2.8151,2.8166,2.8181,2.818,2.8179,2.8183,2.8183,2.816,2.8188,2.8188,2.8188,2.8188,0,2.7827,2.7837,2.7883,2.7893,2.7906,2.7939,2.7951,2.7973,2.7999,2.8014,2.8042,2.8056,2.8093,2.8111,2.8134,2.8151,2.8157,2.817,2.8176,2.8169,2.8167,2.8178,2.818,2.8188,2.8188,2.8188,2.8188,0,2.7794,2.7824,2.7845,2.7885,2.7895,2.7903,2.7938,2.7949,2.7972,2.7991,2.7998,2.8034,2.8057,2.8088,2.812,2.8135,2.815,2.8159,2.8141,2.8145,2.8143,2.8143,2.8128,2.8128,2.8154,2.8154,2.8153,0,2.7782,2.7791,2.7833,2.7845,2.7863,2.7882,2.7898,2.7931,2.7946,2.798,2.7987,2.8013,2.8035,2.807,2.81,2.8125,2.8135,2.8128,2.8139,2.8132,2.8137,2.8137,2.8139,2.8126,2.8125,2.8125,2.8125,0,2.7758,2.7773,2.7795,2.7822,2.784,2.7862,2.7886,2.7895,2.7933,2.7948,2.7972,2.799,2.8023,2.8048,2.8077,2.8097,2.8117,2.8121,2.8122,2.8115,2.8105,2.8112,2.8135,2.8121,2.8122,2.8122,2.8122,2.8122,2.7737,2.7747,2.7778,2.7802,2.7823,2.7845,2.7858,2.7883,2.7904,2.7935,2.7952,2.7976,2.8006,2.8047,2.8066,2.8085,2.8093,2.8095,2.8095,2.8096,2.8094,2.8101,2.809,2.809,2.8091,2.8091,2.8091,0,2.7716,2.7738,2.7759,2.7792,2.7811,2.7828,2.7856,2.787,2.7891,2.7917,2.7939,2.7967,2.7992,2.8023,2.805,2.8059,2.807,2.8066,2.8066,2.807,2.8084,2.8081,2.8057,2.8057,2.8057,2.8057,2.8057,2.8057,2.7708,2.7727,2.7745,2.7776,2.7797,2.7821,2.7836,2.7856,2.7877,2.7908,2.7929,2.7949,2.7978,2.8007,2.8031,2.8039,2.8049,2.8042,2.8053,2.8066,2.8069,2.8072,2.8069,2.8043,2.8043,2.8038,2.8038,2.8038]}]]